Location: Lalanga
(4.5882°N, 32.9072°E)
Time: 04:43:42
(UTC+00:00)

GPS 2-12 Rocket1 - Pass Details

Date: 24 January 2020
Orbit: 586 x 652 km, 20.0° (Epoch: 18 February)

Event Time Altitude Azimuth Distance (km) Brightness Sun altitude
Rises 16:43:39 0° 302° (WNW) 2,947 7.2 -11.7°
Reaches altitude 10° 16:46:11 10° 310° (NW) 2,037 6.1 -12.3°
Maximum altitude 16:50:38 38° 18° (NNE) 987 3.8 -13.4°
Enters shadow 16:53:10 22° 72° (ENE) 1,414 4.2 -14.0°
